Year,Month,Day,Hour,Minute,Value (Times are PST for temperature in C)
2011,07,05,00,00,14.30
2011,07,05,00,01,14.20
2011,07,05,00,02,14.20
2011,07,05,00,03,14.20
2011,07,05,00,04,14.20
2011,07,05,00,05,14.20
2011,07,05,00,06,14.20
2011,07,05,00,07,14.20
2011,07,05,00,08,14.20
2011,07,05,00,09,14.20
2011,07,05,00,10,14.20
2011,07,05,00,11,14.10
2011,07,05,00,12,14.10
2011,07,05,00,13,14.10
2011,07,05,00,14,14.10
2011,07,05,00,15,14.10
2011,07,05,00,16,14.10
2011,07,05,00,17,14.10
2011,07,05,00,18,14.10
2011,07,05,00,19,14.10
2011,07,05,00,20,14.10
2011,07,05,00,21,14.10
2011,07,05,00,22,14.10
2011,07,05,00,23,14.10
2011,07,05,00,24,14.10
2011,07,05,00,25,14.10
2011,07,05,00,26,14.10
2011,07,05,00,27,14.10
2011,07,05,00,28,14.10
2011,07,05,00,29,14.10
2011,07,05,00,30,14.10
2011,07,05,00,31,14.10
2011,07,05,00,32,14.20
2011,07,05,00,33,14.20
2011,07,05,00,34,14.20
2011,07,05,00,35,14.20
2011,07,05,00,36,14.30
2011,07,05,00,37,14.20
2011,07,05,00,38,14.20
2011,07,05,00,39,14.20
2011,07,05,00,40,14.20
2011,07,05,00,41,14.20
2011,07,05,00,42,14.20
2011,07,05,00,43,14.20
2011,07,05,00,44,14.20
2011,07,05,00,45,14.20
2011,07,05,00,46,14.20
2011,07,05,00,47,14.20
2011,07,05,00,48,14.20
2011,07,05,00,49,14.20
2011,07,05,00,50,14.20
2011,07,05,00,51,14.10
2011,07,05,00,52,14.00
2011,07,05,00,53,14.00
2011,07,05,00,54,14.00
2011,07,05,00,55,13.90
2011,07,05,00,56,13.90
2011,07,05,00,57,13.80
2011,07,05,00,58,13.80
2011,07,05,00,59,13.80
2011,07,05,01,00,13.70
2011,07,05,01,01,13.70
2011,07,05,01,02,13.70
2011,07,05,01,03,13.70
2011,07,05,01,04,13.60
2011,07,05,01,05,13.60
2011,07,05,01,06,13.50
2011,07,05,01,07,13.50
2011,07,05,01,08,13.50
2011,07,05,01,09,13.40
2011,07,05,01,10,13.40
2011,07,05,01,11,13.40
2011,07,05,01,12,13.30
2011,07,05,01,13,13.30
2011,07,05,01,14,13.30
2011,07,05,01,15,13.30
2011,07,05,01,16,13.30
2011,07,05,01,17,13.30
2011,07,05,01,18,13.20
2011,07,05,01,19,13.20
2011,07,05,01,20,13.20
2011,07,05,01,21,13.20
2011,07,05,01,22,13.10
2011,07,05,01,23,13.10
2011,07,05,01,24,13.10
2011,07,05,01,25,13.10
2011,07,05,01,26,13.10
2011,07,05,01,27,13.10
2011,07,05,01,28,13.20
2011,07,05,01,29,13.20
2011,07,05,01,30,13.30
2011,07,05,01,31,13.30
2011,07,05,01,32,13.30
2011,07,05,01,33,13.40
2011,07,05,01,34,13.40
2011,07,05,01,35,13.40
2011,07,05,01,36,13.50
2011,07,05,01,37,13.50
2011,07,05,01,38,13.50
2011,07,05,01,39,13.60
2011,07,05,01,40,13.60
2011,07,05,01,41,13.70
2011,07,05,01,42,13.70
2011,07,05,01,43,13.70
2011,07,05,01,44,13.70
2011,07,05,01,45,13.70
2011,07,05,01,46,13.70
2011,07,05,01,47,13.70
2011,07,05,01,48,13.70
2011,07,05,01,49,13.60
2011,07,05,01,50,13.60
2011,07,05,01,51,13.60
2011,07,05,01,52,13.60
2011,07,05,01,53,13.50
2011,07,05,01,54,13.50
2011,07,05,01,55,13.50
2011,07,05,01,56,13.40
2011,07,05,01,57,13.40
2011,07,05,01,58,13.40
2011,07,05,01,59,13.30
2011,07,05,02,00,13.30
2011,07,05,02,01,13.30
2011,07,05,02,02,13.30
2011,07,05,02,03,13.20
2011,07,05,02,04,13.20
2011,07,05,02,05,13.20
2011,07,05,02,06,13.10
2011,07,05,02,07,13.10
2011,07,05,02,08,13.10
2011,07,05,02,09,13.00
2011,07,05,02,10,13.00
2011,07,05,02,11,12.90
2011,07,05,02,12,12.80
2011,07,05,02,13,12.80
2011,07,05,02,14,12.80
2011,07,05,02,15,12.70
2011,07,05,02,16,12.70
2011,07,05,02,17,12.60
2011,07,05,02,18,12.60
2011,07,05,02,19,12.60
2011,07,05,02,20,12.50
2011,07,05,02,21,12.50
2011,07,05,02,22,12.50
2011,07,05,02,23,12.40
2011,07,05,02,24,12.40
2011,07,05,02,25,12.40
2011,07,05,02,26,12.30
2011,07,05,02,27,12.30
2011,07,05,02,28,12.30
2011,07,05,02,29,12.30
2011,07,05,02,30,12.30
2011,07,05,02,31,12.30
2011,07,05,02,32,12.20
2011,07,05,02,33,12.20
2011,07,05,02,34,12.20
2011,07,05,02,35,12.20
2011,07,05,02,36,12.20
2011,07,05,02,37,12.20
2011,07,05,02,38,12.20
2011,07,05,02,39,12.10
2011,07,05,02,40,12.10
2011,07,05,02,41,12.10
2011,07,05,02,42,12.10
2011,07,05,02,43,12.00
2011,07,05,02,44,12.00
2011,07,05,02,45,12.00
2011,07,05,02,46,12.00
2011,07,05,02,47,11.90
2011,07,05,02,48,11.90
2011,07,05,02,49,11.90
2011,07,05,02,50,11.90
2011,07,05,02,51,11.80
2011,07,05,02,52,11.80
2011,07,05,02,53,11.80
2011,07,05,02,54,11.80
2011,07,05,02,55,11.80
2011,07,05,02,56,11.80
2011,07,05,02,57,11.80
2011,07,05,02,58,11.80
2011,07,05,02,59,11.80
2011,07,05,03,00,11.80
2011,07,05,03,01,11.80
2011,07,05,03,02,11.80
2011,07,05,03,03,11.80
2011,07,05,03,04,11.80
2011,07,05,03,05,11.80
2011,07,05,03,06,11.80
2011,07,05,03,07,11.80
2011,07,05,03,08,11.80
2011,07,05,03,09,11.70
2011,07,05,03,10,11.70
2011,07,05,03,11,11.70
2011,07,05,03,12,11.60
2011,07,05,03,13,11.60
2011,07,05,03,14,11.60
2011,07,05,03,15,11.60
2011,07,05,03,16,11.50
2011,07,05,03,17,11.40
2011,07,05,03,18,11.40
2011,07,05,03,19,11.40
2011,07,05,03,20,11.30
2011,07,05,03,21,11.30
2011,07,05,03,22,11.20
2011,07,05,03,23,11.20
2011,07,05,03,24,11.20
2011,07,05,03,25,11.10
2011,07,05,03,26,11.10
2011,07,05,03,27,11.10
2011,07,05,03,28,11.10
2011,07,05,03,29,11.10
2011,07,05,03,30,11.10
2011,07,05,03,31,11.10
2011,07,05,03,32,11.10
2011,07,05,03,33,11.10
2011,07,05,03,34,11.10
2011,07,05,03,35,11.10
2011,07,05,03,36,11.10
2011,07,05,03,37,11.10
2011,07,05,03,38,11.10
2011,07,05,03,39,11.10
2011,07,05,03,40,11.10
2011,07,05,03,41,11.10
2011,07,05,03,42,11.10
2011,07,05,03,43,11.10
2011,07,05,03,44,11.10
2011,07,05,03,45,11.10
2011,07,05,03,46,11.10
2011,07,05,03,47,11.10
2011,07,05,03,48,11.10
2011,07,05,03,49,11.10
2011,07,05,03,50,11.10
2011,07,05,03,51,11.10
2011,07,05,03,52,11.10
2011,07,05,03,53,11.10
2011,07,05,03,54,11.00
2011,07,05,03,55,10.90
2011,07,05,03,56,10.90
2011,07,05,03,57,10.90
2011,07,05,03,58,10.90
2011,07,05,03,59,10.90
2011,07,05,04,00,10.90
2011,07,05,04,01,10.90
2011,07,05,04,02,10.90
2011,07,05,04,03,10.80
2011,07,05,04,04,10.80
2011,07,05,04,05,10.80
2011,07,05,04,06,10.70
2011,07,05,04,07,10.70
2011,07,05,04,08,10.70
2011,07,05,04,09,10.80
2011,07,05,04,10,10.80
2011,07,05,04,11,10.90
2011,07,05,04,12,10.90
2011,07,05,04,13,11.00
2011,07,05,04,14,11.10
2011,07,05,04,15,11.10
2011,07,05,04,16,11.10
2011,07,05,04,17,11.10
2011,07,05,04,18,11.10
2011,07,05,04,19,11.10
2011,07,05,04,20,11.10
2011,07,05,04,21,11.10
2011,07,05,04,22,11.10
2011,07,05,04,23,11.00
2011,07,05,04,24,10.90
2011,07,05,04,25,10.90
2011,07,05,04,26,10.90
2011,07,05,04,27,10.90
2011,07,05,04,28,10.90
2011,07,05,04,29,10.90
2011,07,05,04,30,10.90
2011,07,05,04,31,10.90
2011,07,05,04,32,10.90
2011,07,05,04,33,10.90
2011,07,05,04,34,10.90
2011,07,05,04,35,10.90
2011,07,05,04,36,10.90
2011,07,05,04,37,10.90
2011,07,05,04,38,10.90
2011,07,05,04,39,10.80
2011,07,05,04,40,10.80
2011,07,05,04,41,10.80
2011,07,05,04,42,10.80
2011,07,05,04,43,10.70
2011,07,05,04,44,10.70
2011,07,05,04,45,10.70
2011,07,05,04,46,10.70
2011,07,05,04,47,10.70
2011,07,05,04,48,10.70
2011,07,05,04,49,10.70
2011,07,05,04,50,10.70
2011,07,05,04,51,10.60
2011,07,05,04,52,10.60
2011,07,05,04,53,10.60
2011,07,05,04,54,10.60
2011,07,05,04,55,10.60
2011,07,05,04,56,10.60
2011,07,05,04,57,10.60
2011,07,05,04,58,10.70
2011,07,05,04,59,10.70
2011,07,05,05,00,10.80
2011,07,05,05,01,10.90
2011,07,05,05,02,10.90
2011,07,05,05,03,10.90
2011,07,05,05,04,11.00
2011,07,05,05,05,11.10
2011,07,05,05,06,11.10
2011,07,05,05,07,11.10
2011,07,05,05,08,11.10
2011,07,05,05,09,11.10
2011,07,05,05,10,11.20
2011,07,05,05,11,11.20
2011,07,05,05,12,11.20
2011,07,05,05,13,11.20
2011,07,05,05,14,11.20
2011,07,05,05,15,11.20
2011,07,05,05,16,11.20
2011,07,05,05,17,11.10
2011,07,05,05,18,11.10
2011,07,05,05,19,11.10
2011,07,05,05,20,11.10
2011,07,05,05,21,11.10
2011,07,05,05,22,11.10
2011,07,05,05,23,11.00
2011,07,05,05,24,10.90
2011,07,05,05,25,10.90
2011,07,05,05,26,10.90
2011,07,05,05,27,10.90
2011,07,05,05,28,10.90
2011,07,05,05,29,10.90
2011,07,05,05,30,10.90
2011,07,05,05,31,10.90
2011,07,05,05,32,10.90
2011,07,05,05,33,10.90
2011,07,05,05,34,10.90
2011,07,05,05,35,10.90
2011,07,05,05,36,10.90
2011,07,05,05,37,10.90
2011,07,05,05,38,10.90
2011,07,05,05,39,10.90
2011,07,05,05,40,10.90
2011,07,05,05,41,10.90
2011,07,05,05,42,10.90
2011,07,05,05,43,10.90
2011,07,05,05,44,10.90
2011,07,05,05,45,10.90
2011,07,05,05,46,10.90
2011,07,05,05,47,10.90
2011,07,05,05,48,10.80
2011,07,05,05,49,10.80
2011,07,05,05,50,10.80
2011,07,05,05,51,10.70
2011,07,05,05,52,10.70
2011,07,05,05,53,10.60
2011,07,05,05,54,10.60
2011,07,05,05,55,10.60
2011,07,05,05,56,10.60
2011,07,05,05,57,10.60
2011,07,05,05,58,10.60
2011,07,05,05,59,10.60
2011,07,05,06,00,10.60
2011,07,05,06,01,10.70
2011,07,05,06,02,10.70
2011,07,05,06,03,10.70
2011,07,05,06,04,10.80
2011,07,05,06,05,10.80
2011,07,05,06,06,10.80
2011,07,05,06,07,10.80
2011,07,05,06,08,10.90
2011,07,05,06,09,10.90
2011,07,05,06,10,10.90
2011,07,05,06,11,10.90
2011,07,05,06,12,10.90
2011,07,05,06,13,10.90
2011,07,05,06,14,11.00
2011,07,05,06,15,11.10
2011,07,05,06,16,11.10
2011,07,05,06,17,11.10
2011,07,05,06,18,11.10
2011,07,05,06,19,11.20
2011,07,05,06,20,11.20
2011,07,05,06,21,11.20
2011,07,05,06,22,11.30
2011,07,05,06,23,11.30
2011,07,05,06,24,11.30
2011,07,05,06,25,11.30
2011,07,05,06,26,11.40
2011,07,05,06,27,11.40
2011,07,05,06,28,11.40
2011,07,05,06,29,11.40
2011,07,05,06,30,11.40
2011,07,05,06,31,11.50
2011,07,05,06,32,11.60
2011,07,05,06,33,11.60
2011,07,05,06,34,11.60
2011,07,05,06,35,11.60
2011,07,05,06,36,11.70
2011,07,05,06,37,11.70
2011,07,05,06,38,11.70
2011,07,05,06,39,11.80
2011,07,05,06,40,11.80
2011,07,05,06,41,11.90
2011,07,05,06,42,11.90
2011,07,05,06,43,12.00
2011,07,05,06,44,12.00
2011,07,05,06,45,12.10
2011,07,05,06,46,12.20
2011,07,05,06,47,12.20
2011,07,05,06,48,12.30
2011,07,05,06,49,12.30
2011,07,05,06,50,12.40
2011,07,05,06,51,12.50
2011,07,05,06,52,12.50
2011,07,05,06,53,12.60
2011,07,05,06,54,12.70
2011,07,05,06,55,12.70
2011,07,05,06,56,12.80
2011,07,05,06,57,12.80
2011,07,05,06,58,12.90
2011,07,05,06,59,13.00
2011,07,05,07,00,13.00
2011,07,05,07,01,13.10
2011,07,05,07,02,13.20
2011,07,05,07,03,13.30
2011,07,05,07,04,13.30
2011,07,05,07,05,13.40
2011,07,05,07,06,13.50
2011,07,05,07,07,13.60
2011,07,05,07,08,13.70
2011,07,05,07,09,13.80
2011,07,05,07,10,13.90
2011,07,05,07,11,13.90
2011,07,05,07,12,13.90
2011,07,05,07,13,13.80
2011,07,05,07,14,13.80
2011,07,05,07,15,13.80
2011,07,05,07,16,13.80
2011,07,05,07,17,13.80
2011,07,05,07,18,13.80
2011,07,05,07,19,13.70
2011,07,05,07,20,13.70
2011,07,05,07,21,13.70
2011,07,05,07,22,13.60
2011,07,05,07,23,13.60
2011,07,05,07,24,13.60
2011,07,05,07,25,13.60
2011,07,05,07,26,13.60
2011,07,05,07,27,13.60
2011,07,05,07,28,13.60
2011,07,05,07,29,13.60
2011,07,05,07,30,13.70
2011,07,05,07,31,13.70
2011,07,05,07,32,13.80
2011,07,05,07,33,13.90
2011,07,05,07,34,13.90
2011,07,05,07,35,14.00
2011,07,05,07,36,14.10
2011,07,05,07,37,14.20
2011,07,05,07,38,14.40
2011,07,05,07,39,14.50
2011,07,05,07,40,14.60
2011,07,05,07,41,14.70
2011,07,05,07,42,14.70
2011,07,05,07,43,14.80
2011,07,05,07,44,14.80
2011,07,05,07,45,14.80
2011,07,05,07,46,14.90
2011,07,05,07,47,15.00
2011,07,05,07,48,15.00
2011,07,05,07,49,15.00
2011,07,05,07,50,15.00
2011,07,05,07,51,15.00
2011,07,05,07,52,15.00
2011,07,05,07,53,15.10
2011,07,05,07,54,15.10
2011,07,05,07,55,15.10
2011,07,05,07,56,15.20
2011,07,05,07,57,15.20
2011,07,05,07,58,15.30
2011,07,05,07,59,15.30
2011,07,05,08,00,15.30
2011,07,05,08,01,15.30
2011,07,05,08,02,15.30
2011,07,05,08,03,15.30
2011,07,05,08,04,15.30
2011,07,05,08,05,15.30
2011,07,05,08,06,15.30
2011,07,05,08,07,15.40
2011,07,05,08,08,15.40
2011,07,05,08,09,15.40
2011,07,05,08,10,15.40
2011,07,05,08,11,15.30
2011,07,05,08,12,15.30
2011,07,05,08,13,15.30
2011,07,05,08,14,15.20
2011,07,05,08,15,15.20
2011,07,05,08,16,15.20
2011,07,05,08,17,15.20
2011,07,05,08,18,15.20
2011,07,05,08,19,15.20
2011,07,05,08,20,15.20
2011,07,05,08,21,15.20
2011,07,05,08,22,15.20
2011,07,05,08,23,15.20
2011,07,05,08,24,15.20
2011,07,05,08,25,15.20
2011,07,05,08,26,15.20
2011,07,05,08,27,15.30
2011,07,05,08,28,15.30
2011,07,05,08,29,15.30
2011,07,05,08,30,15.30
2011,07,05,08,31,15.30
2011,07,05,08,32,15.30
2011,07,05,08,33,15.30
2011,07,05,08,34,15.30
2011,07,05,08,35,15.30
2011,07,05,08,36,15.20
2011,07,05,08,37,15.20
2011,07,05,08,38,15.20
2011,07,05,08,39,15.20
2011,07,05,08,40,15.10
2011,07,05,08,41,15.20
2011,07,05,08,42,15.20
2011,07,05,08,43,15.30
2011,07,05,08,44,15.30
2011,07,05,08,45,15.30
2011,07,05,08,46,15.40
2011,07,05,08,47,15.40
2011,07,05,08,48,15.40
2011,07,05,08,49,15.50
2011,07,05,08,50,15.50
2011,07,05,08,51,15.50
2011,07,05,08,52,15.40
2011,07,05,08,53,15.40
2011,07,05,08,54,15.30
2011,07,05,08,55,15.30
2011,07,05,08,56,15.30
2011,07,05,08,57,15.40
2011,07,05,08,58,15.40
2011,07,05,08,59,15.40
2011,07,05,09,00,15.40
2011,07,05,09,01,15.50
2011,07,05,09,02,15.50
2011,07,05,09,03,15.50
2011,07,05,09,04,15.40
2011,07,05,09,05,15.30
2011,07,05,09,06,15.30
2011,07,05,09,07,15.20
2011,07,05,09,08,15.10
2011,07,05,09,09,15.00
2011,07,05,09,10,14.90
2011,07,05,09,11,14.80
2011,07,05,09,12,14.80
2011,07,05,09,13,14.80
2011,07,05,09,14,14.70
2011,07,05,09,15,14.70
2011,07,05,09,16,14.70
2011,07,05,09,17,14.70
2011,07,05,09,18,14.70
2011,07,05,09,19,14.80
2011,07,05,09,20,14.80
2011,07,05,09,21,14.80
2011,07,05,09,22,14.70
2011,07,05,09,23,14.70
2011,07,05,09,24,14.80
2011,07,05,09,25,14.80
2011,07,05,09,26,14.80
2011,07,05,09,27,14.80
2011,07,05,09,28,14.80
2011,07,05,09,29,14.90
2011,07,05,09,30,14.90
2011,07,05,09,31,15.00
2011,07,05,09,32,15.10
2011,07,05,09,33,15.20
2011,07,05,09,34,15.40
2011,07,05,09,35,15.50
2011,07,05,09,36,15.60
2011,07,05,09,37,15.60
2011,07,05,09,38,15.70
2011,07,05,09,39,15.80
2011,07,05,09,40,15.80
2011,07,05,09,41,15.80
2011,07,05,09,42,15.90
2011,07,05,09,43,15.90
2011,07,05,09,44,15.90
2011,07,05,09,45,15.90
2011,07,05,09,46,15.90
2011,07,05,09,47,16.00
2011,07,05,09,48,16.10
2011,07,05,09,49,16.20
2011,07,05,09,50,16.40
2011,07,05,09,51,16.40
2011,07,05,09,52,16.40
2011,07,05,09,53,16.30
2011,07,05,09,54,16.30
2011,07,05,09,55,16.30
2011,07,05,09,56,16.40
2011,07,05,09,57,16.50
2011,07,05,09,58,16.60
2011,07,05,09,59,16.40
2011,07,05,10,00,16.30
2011,07,05,10,01,16.20
2011,07,05,10,02,16.10
2011,07,05,10,03,16.10
2011,07,05,10,04,16.10
2011,07,05,10,05,16.10
2011,07,05,10,06,16.20
2011,07,05,10,07,16.20
2011,07,05,10,08,16.30
2011,07,05,10,09,16.30
2011,07,05,10,10,16.30
2011,07,05,10,11,16.40
2011,07,05,10,12,16.50
2011,07,05,10,13,16.60
2011,07,05,10,14,16.60
2011,07,05,10,15,16.60
2011,07,05,10,16,16.60
2011,07,05,10,17,16.60
2011,07,05,10,18,16.60
2011,07,05,10,19,16.50
2011,07,05,10,20,16.40
2011,07,05,10,21,16.40
2011,07,05,10,22,16.40
2011,07,05,10,23,16.40
2011,07,05,10,24,16.40
2011,07,05,10,25,16.40
2011,07,05,10,26,16.40
2011,07,05,10,27,16.40
2011,07,05,10,28,16.40
2011,07,05,10,29,16.40
2011,07,05,10,30,16.50
2011,07,05,10,31,16.60
2011,07,05,10,32,16.60
2011,07,05,10,33,16.60
2011,07,05,10,34,16.60
2011,07,05,10,35,16.50
2011,07,05,10,36,16.40
2011,07,05,10,37,16.40
2011,07,05,10,38,16.50
2011,07,05,10,39,16.60
2011,07,05,10,40,16.80
2011,07,05,10,41,16.90
2011,07,05,10,42,17.00
2011,07,05,10,43,17.00
2011,07,05,10,44,16.90
2011,07,05,10,45,16.80
2011,07,05,10,46,16.80
2011,07,05,10,47,16.90
2011,07,05,10,48,16.90
2011,07,05,10,49,16.90
2011,07,05,10,50,16.80
2011,07,05,10,51,16.80
2011,07,05,10,52,16.80
2011,07,05,10,53,16.80
2011,07,05,10,54,16.90
2011,07,05,10,55,16.80
2011,07,05,10,56,16.80
2011,07,05,10,57,16.70
2011,07,05,10,58,16.70
2011,07,05,10,59,16.70
2011,07,05,11,00,16.90
2011,07,05,11,01,17.00
2011,07,05,11,02,17.10
2011,07,05,11,03,17.30
2011,07,05,11,04,17.30
2011,07,05,11,05,17.20
2011,07,05,11,06,17.20
2011,07,05,11,07,17.10
2011,07,05,11,08,17.00
2011,07,05,11,09,16.90
2011,07,05,11,10,16.90
2011,07,05,11,11,17.00
2011,07,05,11,12,17.10
2011,07,05,11,13,17.00
2011,07,05,11,14,17.00
2011,07,05,11,15,17.00
2011,07,05,11,16,16.90
2011,07,05,11,17,16.90
2011,07,05,11,18,16.90
2011,07,05,11,19,16.70
2011,07,05,11,20,16.70
2011,07,05,11,21,16.60
2011,07,05,11,22,16.50
2011,07,05,11,23,16.40
2011,07,05,11,24,16.40
2011,07,05,11,25,16.40
2011,07,05,11,26,16.40
2011,07,05,11,27,16.40
2011,07,05,11,28,16.40
2011,07,05,11,29,16.40
2011,07,05,11,30,16.60
2011,07,05,11,31,16.80
2011,07,05,11,32,16.80
2011,07,05,11,33,16.80
2011,07,05,11,34,16.90
2011,07,05,11,35,17.00
2011,07,05,11,36,17.00
2011,07,05,11,37,17.10
2011,07,05,11,38,17.20
2011,07,05,11,39,17.30
2011,07,05,11,40,17.30
2011,07,05,11,41,17.50
2011,07,05,11,42,17.60
2011,07,05,11,43,17.70
2011,07,05,11,44,17.80
2011,07,05,11,45,17.80
2011,07,05,11,46,17.70
2011,07,05,11,47,17.60
2011,07,05,11,48,17.50
2011,07,05,11,49,17.60
2011,07,05,11,50,17.70
2011,07,05,11,51,17.70
2011,07,05,11,52,17.70
2011,07,05,11,53,17.70
2011,07,05,11,54,17.70
2011,07,05,11,55,17.60
2011,07,05,11,56,17.50
2011,07,05,11,57,17.40
2011,07,05,11,58,17.30
2011,07,05,11,59,17.20
2011,07,05,12,00,17.20
2011,07,05,12,01,17.20
2011,07,05,12,02,17.40
2011,07,05,12,03,17.50
2011,07,05,12,04,17.60
2011,07,05,12,05,17.70
2011,07,05,12,06,17.70
2011,07,05,12,07,17.70
2011,07,05,12,08,17.70
2011,07,05,12,09,17.80
2011,07,05,12,10,17.70
2011,07,05,12,11,17.70
2011,07,05,12,12,17.80
2011,07,05,12,13,17.70
2011,07,05,12,14,17.60
2011,07,05,12,15,17.50
2011,07,05,12,16,17.50
2011,07,05,12,17,17.40
2011,07,05,12,18,17.30
2011,07,05,12,19,17.30
2011,07,05,12,20,17.40
2011,07,05,12,21,17.50
2011,07,05,12,22,17.60
2011,07,05,12,23,17.70
2011,07,05,12,24,17.80
2011,07,05,12,25,17.90
2011,07,05,12,26,17.90
2011,07,05,12,27,17.80
2011,07,05,12,28,17.80
2011,07,05,12,29,17.70
2011,07,05,12,30,17.60
2011,07,05,12,31,17.70
2011,07,05,12,32,17.70
2011,07,05,12,33,17.70
2011,07,05,12,34,17.80
2011,07,05,12,35,17.80
2011,07,05,12,36,17.90
2011,07,05,12,37,18.00
2011,07,05,12,38,18.10
2011,07,05,12,39,18.20
2011,07,05,12,40,18.20
2011,07,05,12,41,18.20
2011,07,05,12,42,18.10
2011,07,05,12,43,18.10
2011,07,05,12,44,18.10
2011,07,05,12,45,18.20
2011,07,05,12,46,18.40
2011,07,05,12,47,18.50
2011,07,05,12,48,18.70
2011,07,05,12,49,18.90
2011,07,05,12,50,19.00
2011,07,05,12,51,19.00
2011,07,05,12,52,18.90
2011,07,05,12,53,18.80
2011,07,05,12,54,18.60
2011,07,05,12,55,18.50
2011,07,05,12,56,18.30
2011,07,05,12,57,18.30
2011,07,05,12,58,18.30
2011,07,05,12,59,18.20
2011,07,05,13,00,18.00
2011,07,05,13,01,17.90
2011,07,05,13,02,17.90
2011,07,05,13,03,17.90
2011,07,05,13,04,17.90
2011,07,05,13,05,17.90
2011,07,05,13,06,17.90
2011,07,05,13,07,17.90
2011,07,05,13,08,17.80
2011,07,05,13,09,17.80
2011,07,05,13,10,17.80
2011,07,05,13,11,17.90
2011,07,05,13,12,18.00
2011,07,05,13,13,18.30
2011,07,05,13,14,18.40
2011,07,05,13,15,18.60
2011,07,05,13,16,18.80
2011,07,05,13,17,19.00
2011,07,05,13,18,19.10
2011,07,05,13,19,19.20
2011,07,05,13,20,19.30
2011,07,05,13,21,19.30
2011,07,05,13,22,19.30
2011,07,05,13,23,19.40
2011,07,05,13,24,19.50
2011,07,05,13,25,19.60
2011,07,05,13,26,19.70
2011,07,05,13,27,19.90
2011,07,05,13,28,19.90
2011,07,05,13,29,19.90
2011,07,05,13,30,19.90
2011,07,05,13,31,19.90
2011,07,05,13,32,20.00
2011,07,05,13,33,20.10
2011,07,05,13,34,20.00
2011,07,05,13,35,19.90
2011,07,05,13,36,19.90
2011,07,05,13,37,19.90
2011,07,05,13,38,19.90
2011,07,05,13,39,20.00
2011,07,05,13,40,20.20
2011,07,05,13,41,20.20
2011,07,05,13,42,20.20
2011,07,05,13,43,20.30
2011,07,05,13,44,20.20
2011,07,05,13,45,20.20
2011,07,05,13,46,20.20
2011,07,05,13,47,20.30
2011,07,05,13,48,20.30
2011,07,05,13,49,20.40
2011,07,05,13,50,20.50
2011,07,05,13,51,20.50
2011,07,05,13,52,20.40
2011,07,05,13,53,20.30
2011,07,05,13,54,20.30
2011,07,05,13,55,20.40
2011,07,05,13,56,20.50
2011,07,05,13,57,20.50
2011,07,05,13,58,20.40
2011,07,05,13,59,20.40
2011,07,05,14,00,20.50
2011,07,05,14,01,20.50
2011,07,05,14,02,20.50
2011,07,05,14,03,20.50
2011,07,05,14,04,20.50
2011,07,05,14,05,20.50
2011,07,05,14,06,20.60
2011,07,05,14,07,20.60
2011,07,05,14,08,20.70
2011,07,05,14,09,20.80
2011,07,05,14,10,20.90
2011,07,05,14,11,20.80
2011,07,05,14,12,20.80
2011,07,05,14,13,20.70
2011,07,05,14,14,20.70
2011,07,05,14,15,20.80
2011,07,05,14,16,20.80
2011,07,05,14,17,20.90
2011,07,05,14,18,20.90
2011,07,05,14,19,20.90
2011,07,05,14,20,21.00
2011,07,05,14,21,21.10
2011,07,05,14,22,21.20
2011,07,05,14,23,21.10
2011,07,05,14,24,21.10
2011,07,05,14,25,21.20
2011,07,05,14,26,21.30
2011,07,05,14,27,21.40
2011,07,05,14,28,21.50
2011,07,05,14,29,21.60
2011,07,05,14,30,21.60
2011,07,05,14,31,21.60
2011,07,05,14,32,21.60
2011,07,05,14,33,21.60
2011,07,05,14,34,21.60
2011,07,05,14,35,21.50
2011,07,05,14,36,21.30
2011,07,05,14,37,21.10
2011,07,05,14,38,20.80
2011,07,05,14,39,20.70
2011,07,05,14,40,20.50
2011,07,05,14,41,20.20
2011,07,05,14,42,20.20
2011,07,05,14,43,20.10
2011,07,05,14,44,20.10
2011,07,05,14,45,20.10
2011,07,05,14,46,20.10
2011,07,05,14,47,20.20
2011,07,05,14,48,20.30
2011,07,05,14,49,20.40
2011,07,05,14,50,20.50
2011,07,05,14,51,20.50
2011,07,05,14,52,20.70
2011,07,05,14,53,20.80
2011,07,05,14,54,20.90
2011,07,05,14,55,21.00
2011,07,05,14,56,21.10
2011,07,05,14,57,21.10
2011,07,05,14,58,21.20
2011,07,05,14,59,21.30
2011,07,05,15,00,21.30
2011,07,05,15,01,21.20
2011,07,05,15,02,21.00
2011,07,05,15,03,20.80
2011,07,05,15,04,20.60
2011,07,05,15,05,20.50
2011,07,05,15,06,20.50
2011,07,05,15,07,20.30
2011,07,05,15,08,20.30
2011,07,05,15,09,20.20
2011,07,05,15,10,20.10
2011,07,05,15,11,20.10
2011,07,05,15,12,20.10
2011,07,05,15,13,20.10
2011,07,05,15,14,20.10
2011,07,05,15,15,20.20
2011,07,05,15,16,20.20
2011,07,05,15,17,20.20
2011,07,05,15,18,20.20
2011,07,05,15,19,20.40
2011,07,05,15,20,20.50
2011,07,05,15,21,20.60
2011,07,05,15,22,20.70
2011,07,05,15,23,20.80
2011,07,05,15,24,20.70
2011,07,05,15,25,20.70
2011,07,05,15,26,20.70
2011,07,05,15,27,20.60
2011,07,05,15,28,20.50
2011,07,05,15,29,20.50
2011,07,05,15,30,20.50
2011,07,05,15,31,20.60
2011,07,05,15,32,20.70
2011,07,05,15,33,20.70
2011,07,05,15,34,20.80
2011,07,05,15,35,20.90
2011,07,05,15,36,21.00
2011,07,05,15,37,21.00
2011,07,05,15,38,21.00
2011,07,05,15,39,21.00
2011,07,05,15,40,21.10
2011,07,05,15,41,21.20
2011,07,05,15,42,21.20
2011,07,05,15,43,21.20
2011,07,05,15,44,21.20
2011,07,05,15,45,21.30
2011,07,05,15,46,21.30
2011,07,05,15,47,21.20
2011,07,05,15,48,21.20
2011,07,05,15,49,21.20
2011,07,05,15,50,21.20
2011,07,05,15,51,21.20
2011,07,05,15,52,21.20
2011,07,05,15,53,21.20
2011,07,05,15,54,21.20
2011,07,05,15,55,21.30
2011,07,05,15,56,21.30
2011,07,05,15,57,21.30
2011,07,05,15,58,21.30
2011,07,05,15,59,21.30
2011,07,05,16,00,21.30
2011,07,05,16,01,21.30
2011,07,05,16,02,21.30
2011,07,05,16,03,21.40
2011,07,05,16,04,21.40
2011,07,05,16,05,21.50
2011,07,05,16,06,21.60
2011,07,05,16,07,21.60
2011,07,05,16,08,21.60
2011,07,05,16,09,21.60
2011,07,05,16,10,21.60
2011,07,05,16,11,21.50
2011,07,05,16,12,21.40
2011,07,05,16,13,21.30
2011,07,05,16,14,21.40
2011,07,05,16,15,21.40
2011,07,05,16,16,21.30
2011,07,05,16,17,21.30
2011,07,05,16,18,21.30
2011,07,05,16,19,21.30
2011,07,05,16,20,21.30
2011,07,05,16,21,21.50
2011,07,05,16,22,21.60
2011,07,05,16,23,21.80
2011,07,05,16,24,22.00
2011,07,05,16,25,22.00
2011,07,05,16,26,22.10
2011,07,05,16,27,22.10
2011,07,05,16,28,22.10
2011,07,05,16,29,22.10
2011,07,05,16,30,22.10
2011,07,05,16,31,22.00
2011,07,05,16,32,22.00
2011,07,05,16,33,22.00
2011,07,05,16,34,22.00
2011,07,05,16,35,22.00
2011,07,05,16,36,22.00
2011,07,05,16,37,21.90
2011,07,05,16,38,22.00
2011,07,05,16,39,22.00
2011,07,05,16,40,22.10
2011,07,05,16,41,22.10
2011,07,05,16,42,22.10
2011,07,05,16,43,22.20
2011,07,05,16,44,22.30
2011,07,05,16,45,22.30
2011,07,05,16,46,22.20
2011,07,05,16,47,22.00
2011,07,05,16,48,21.80
2011,07,05,16,49,21.60
2011,07,05,16,50,21.60
2011,07,05,16,51,21.50
2011,07,05,16,52,21.20
2011,07,05,16,53,21.00
2011,07,05,16,54,20.80
2011,07,05,16,55,20.60
2011,07,05,16,56,20.50
2011,07,05,16,57,20.40
2011,07,05,16,58,20.30
2011,07,05,16,59,20.30
2011,07,05,17,00,20.20
2011,07,05,17,01,20.10
2011,07,05,17,02,20.00
2011,07,05,17,03,19.90
2011,07,05,17,04,19.90
2011,07,05,17,05,19.90
2011,07,05,17,06,19.90
2011,07,05,17,07,19.90
2011,07,05,17,08,19.90
2011,07,05,17,09,19.80
2011,07,05,17,10,19.80
2011,07,05,17,11,19.80
2011,07,05,17,12,19.80
2011,07,05,17,13,19.70
2011,07,05,17,14,19.70
2011,07,05,17,15,19.70
2011,07,05,17,16,19.80
2011,07,05,17,17,19.90
2011,07,05,17,18,20.00
2011,07,05,17,19,20.10